{"data":{"norad_id":53673,"epoch":"2026-05-25T03:37:25.224096Z","epoch_age_seconds":61671,"freshness":"FRESH","line1":"1 53673U 22105AB  26145.15098639  .00003583  00000+0  19712-3 0  9994","line2":"2 53673  97.6047  27.0458 0002265  83.1007 277.0482 15.14705840204831","mean_motion":15.1470584,"eccentricity":0.0002265,"inclination_deg":97.6047,"raan_deg":27.0458,"arg_perigee_deg":83.1007,"mean_anomaly_deg":277.0482,"bstar":0.00019712,"rev_number":20483,"period_min":95.06796382326,"perigee_km":520.3088971693,"apogee_km":523.43460113266,"semimajor_km":6900.008749151,"source":"CELESTRAK","updated_at":"2026-05-25T13:38:17.489605Z"}}